Probability
0 0 0 0 0 0 0 0 0 0 1 3 3 1 0 0 0 0 0 0 0 0 0 0 0 1 2 2 2 3 4 4 5 7 9 9 9 9 6 3 1 0 0 0
0 0 0 0 0 0 0 0 0 1 2 3 3 2 1 0 0 0 0 0 0 0 0 0 0 1 2 2 1 2 3 4 5 7 9 9 8 8 6 3 1 0 0 0
0 0 0 0 0 0 0 0 0 1 3 3 3 2 1 0 0 0 0 0 0 0 0 0 0 0 1 1 0 1 2 3 4 5 7 8 8 6 4 2 1 0 0 0
0 0 0 0 0 0 0 0 1 2 2 2 1 1 2 1 0 0 0 0 0 0 0 0 0 0 0 0 0 0 1 2 3 4 6 8 8 6 4 1 1 0 0 0
0 0 0 0 0 0 0 0 1 1 1 1 0 1 2 2 1 0 0 0 0 0 0 0 0 0 0 0 0 0 0 1 1 2 4 6 7 6 4 1 0 0 0 0
0 0 0 0 0 0 0 0 0 0 0 0 0 0 1 1 1 0 0 0 0 0 0 0 0 0 0 0 0 0 0 0 0 1 1 3 5 4 3 1 0 0 1 1
0 0 0 0 0 0 0 0 0 0 0 0 0 0 0 0 0 0 0 0 0 0 0 0 0 0 0 0 0 0 0 0 0 0 0 2 4 3 1 0 0 0 1 1
0 0 0 0 0 0 0 0 0 0 0 0 0 0 0 0 0 0 0 0 0 0 0 0 0 0 0 0 0 0 0 0 0 0 0 1 2 1 0 0 0 0 0 1
0 0 0 0 0 0 0 0 0 0 0 0 0 0 0 0 0 0 0 0 0 0 0 0 0 0 0 0 0 0 0 0 0 0 0 0 0 0 0 0 0 0 0 0
0 0 0 0 0 0 0 0 0 0 0 0 0 0 0 0 0 0 0 0 0 0 0 0 0 0 0 0 0 0 0 0 0 0 0 0 0 0 0 0 0 0 0 0
0 0 0 0 0 0 0 0 0 0 0 0 0 0 0 0 0 0 0 0 0 0 0 0 0 0 0 0 0 0 0 0 0 0 0 0 0 0 0 0 0 0 0 0
0 0 0 0 0 0 0 0 0 0 0 0 0 0 0 0 0 0 0 0 0 0 0 0 0 0 0 0 0 0 0 0 0 0 0 0 0 0 0 0 0 0 0 0
0 0 0 0 0 0 0 0 0 0 0 0 0 0 0 0 0 0 0 0 0 0 0 0 0 0 0 0 0 0 0 0 0 0 0 0 0 0 0 0 0 0 0 0
0 0 0 0 0 0 0 0 0 0 0 0 0 0 0 0 0 0 0 0 0 0 0 0 0 0 0 0 0 0 0 0 0 0 0 0 0 0 0 0 0 0 0 0
0 0 0 0 0 0 0 0 0 0 0 0 0 0 0 0 0 0 0 0 0 0 0 0 0 0 0 0 0 0 0 0 0 0 0 0 0 0 0 0 0 0 0 0
0 0 0 0 0 0 0 0 0 0 0 0 0 0 0 0 0 0 0 0 0 0 0 0 0 0 0 0 0 0 0 0 0 0 0 0 0 0 0 0 0 0 0 0
0 0 0 0 0 0 0 0 0 0 0 0 0 0 0 0 0 0 0 0 0 0 0 0 0 0 0 0 0 0 0 0 0 0 0 0 0 0 0 0 0 0 0 0
0 0 0 0 0 0 0 0 0 0 0 0 0 0 0 0 0 0 0 0 0 0 0 0 0 0 0 0 0 0 0 0 0 0 0 0 0 0 0 0 0 0 0 0
0 0 0 0 0 0 0 0 0 0 0 0 0 0 0 0 0 0 0 0 0 0 0 0 0 0 0 0 0 0 0 0 0 0 0 0 0 0 0 0 0 0 0 0
0 0 0 0 0 0 0 0 0 0 0 0 0 0 0 0 0 0 0 0 0 0 0 0 0 0 0 0 0 0 0 0 0 0 0 0 0 0 0 0 0 0 0 0
0 0 0 0 0 0 0 0 0 0 0 0 0 0 0 0 0 0 0 0 0 0 0 0 0 0 0 0 0 0 0 0 0 0 0 0 0 0 0 0 0 0 0 0
0 0 0 0 0 0 0 0 0 0 0 0 0 0 0 0 0 0 0 0 0 0 0 0 0 0 0 0 0 0 0 0 0 0 0 0 0 0 0 0 0 0 0 0
0 0 0 0 0 0 0 0 0 0 0 0 0 0 0 0 0 0 0 0 0 0 0 0 0 0 0 0 0 0 0 0 0 0 0 0 0 0 0 0 0 0 0 0
0 0 0 0 0 0 0 0 0 0 0 0 0 0 0 0 0 0 0 0 0 0 0 0 0 0 0 0 0 0 0 0 0 0 0 0 0 0 0 0 0 0 0 0
0 0 0 0 0 0 0 0 0 0 0 0 0 0 0 0 0 0 0 0 0 0 0 0 0 0 0 0 0 0 0 0 0 0 0 0 0 0 0 0 0 0 0 0
0 0 0 0 0 0 0 0 0 0 0 0 0 0 0 0 0 0 0 0 0 0 0 0 0 0 0 0 0 0 0 0 0 0 0 0 0 0 0 0 0 0 0 0
Wind_Speed
4 5 2 2 2 3 2 2 5 6 3 3 5 7 6 5 2 2 2 1 0 1 2 2 2 2 2 2 2 1 1 2 1 0 1 1 1 1 1 1 2 2 2 3
5 2 3 2 1 1 1 2 3 5 3 3 5 7 4 3 2 2 2 1 1 1 2 3 3 3 2 2 1 1 1 2 1 0 1 2 2 1 2 1 1 2 2 2
2 3 3 1 2 2 2 3 3 5 6 3 2 5 3 3 1 2 2 1 1 0 0 1 2 3 3 3 2 1 1 1 2 1 0 0 0 0 1 1 1 1 1 2
0 3 1 1 1 1 4 3 3 3 2 4 0 4 6 4 4 4 4 3 2 2 1 1 1 2 3 3 2 2 2 2 2 2 1 1 1 1 1 1 1 1 0 1
2 2 2 2 3 2 4 4 4 3 2 3 1 2 7 2 4 6 5 3 3 2 1 1 1 1 1 2 2 2 3 3 3 2 1 1 0 0 1 1 1 1 1 0
2 1 0 2 3 2 2 3 2 2 2 3 3 3 6 2 4 5 4 4 3 2 1 1 1 1 1 2 2 3 3 3 3 3 2 1 0 0 1 1 2 1 1 1
5 3 2 1 3 4 4 4 4 5 3 5 2 2 7 4 4 4 4 4 4 2 1 1 1 1 2 2 2 2 3 3 3 3 3 1 1 1 2 2 2 1 1 1
3 5 3 2 1 1 1 3 3 3 4 6 4 5 6 3 4 3 2 2 2 2 1 1 1 1 2 2 2 2 2 3 3 3 2 2 1 1 1 1 1 1 1 2
1 5 3 2 1 2 1 1 2 2 1 4 6 6 6 2 4 5 4 4 3 3 3 2 2 1 1 2 2 2 1 2 3 3 2 1 1 0 0 1 1 1 1 1
2 4 4 3 2 2 1 2 2 2 1 5 6 5 5 5 5 5 5 5 5 4 3 3 2 2 2 2 2 2 1 1 2 2 2 1 0 0 1 0 1 1 1 1
1 1 5 3 1 3 1 1 1 1 2 2 5 8 3 4 4 5 5 5 5 4 4 3 3 2 2 2 2 2 2 2 2 2 2 1 1 0 1 1 1 2 1 1
1 2 4 5 4 2 3 3 4 2 3 3 4 9 3 2 3 4 5 6 5 5 4 4 3 3 2 2 2 3 2 2 2 2 2 1 1 0 1 1 1 2 2 2
2 2 3 5 3 2 0 1 2 2 2 3 4 10 3 5 5 5 5 5 5 5 5 4 3 3 3 3 3 3 3 2 2 2 2 1 1 1 1 2 2 2 2 2
3 3 5 7 7 3 4 4 2 2 3 5 8 10 9 8 8 8 7 5 5 5 4 4 4 3 3 3 3 3 3 3 2 2 1 1 2 2 2 2 2 2 2 2
3 3 5 8 7 4 7 7 5 6 7 8 9 9 10 8 8 7 6 5 5 5 5 4 4 4 4 4 3 3 3 3 3 2 2 2 2 2 2 2 2 2 2 2
2 3 3 6 4 5 8 9 8 8 7 9 10 12 8 7 4 5 5 4 5 5 5 4 4 4 4 4 4 4 4 4 3 2 3 2 2 1 2 2 2 1 2 2
3 2 1 4 3 3 8 8 8 6 7 7 10 10 5 5 5 5 4 4 5 6 5 4 4 4 4 4 4 4 4 3 2 2 2 2 2 2 2 2 1 2 2 2
5 3 2 3 3 6 8 2 5 6 6 7 7 5 4 5 6 4 3 3 4 5 5 4 4 4 5 4 4 3 3 2 2 2 2 3 2 3 2 2 2 2 2 2
4 4 2 1 3 9 6 2 3 4 6 5 6 6 4 3 4 4 2 2 3 4 4 4 4 4 4 4 4 3 3 3 3 3 3 3 2 2 2 2 3 3 2 2
2 3 3 2 3 8 6 2 1 1 5 2 3 4 3 1 3 5 3 3 4 4 3 4 4 4 4 5 4 3 3 3 4 4 4 3 2 2 2 3 2 2 1 1
1 1 4 5 6 10 4 1 1 2 6 3 2 3 2 3 5 4 3 3 3 3 4 4 3 3 4 4 3 3 3 4 4 4 4 3 3 2 2 2 1 1 1 1
7 6 6 5 5 10 1 3 4 5 3 2 3 3 3 5 4 3 3 3 3 3 4 4 3 4 4 4 3 4 5 5 4 3 3 3 3 3 2 1 1 1 1 1
6 7 6 8 8 2 3 4 3 1 2 3 3 4 3 4 4 4 3 3 3 3 4 3 3 4 5 4 3 4 5 5 4 3 3 3 4 3 2 1 1 1 0 1
4 1 2 5 7 4 4 4 2 2 3 4 4 3 3 4 4 4 4 3 3 3 3 3 3 4 5 5 4 4 5 4 3 3 3 3 3 3 2 2 2 1 1 1
4 3 3 6 5 4 4 5 4 4 3 4 4 3 3 3 4 4 3 3 3 3 3 3 3 4 5 5 5 5 4 3 3 3 3 3 2 2 2 2 2 2 2 2
4 5 5 7 4 4 6 4 3 3 4 4 3 4 4 3 4 3 3 3 3 3 3 3 4 4 5 5 5 5 4 2 2 2 2 2 2 2 2 2 2 4 4 5
Wind_Direction
30 60 35 277 209 205 220 245 272 274 282 303 259 271 279 277 266 270 278 281 232 322 326 4 20 19 16 21 38 44 15 355 20 136 167 178 182 166 149 137 139 120 141 137
40 26 267 268 263 271 220 268 283 298 309 297 279 280 274 261 239 230 249 281 281 339 0 6 19 21 7 9 360 25 14 9 0 253 220 208 197 187 169 153 128 109 131 141
127 260 285 305 342 344 290 222 246 284 318 315 317 301 296 310 329 345 333 308 321 186 276 330 6 9 358 2 350 350 3 11 10 359 15 68 109 96 107 122 111 87 110 147
330 291 299 327 325 333 274 245 263 280 326 293 318 286 284 285 320 324 323 325 320 317 327 325 2 6 349 338 340 353 12 24 18 22 84 137 161 189 192 185 159 126 144 137
297 303 343 317 285 257 251 281 275 253 214 292 291 229 283 328 302 298 299 305 311 306 286 272 296 335 343 341 359 17 16 24 24 20 25 100 72 215 168 155 157 155 171 94
266 292 298 269 285 264 301 354 7 46 76 294 250 199 281 269 273 294 296 301 300 291 296 293 316 26 10 3 20 28 23 13 17 18 11 15 80 112 140 156 180 175 170 189
337 329 339 6 359 3 33 54 15 353 354 262 269 232 258 277 292 278 276 281 295 298 307 337 345 13 1 2 5 17 19 5 5 12 358 322 254 197 172 180 195 189 167 205
352 306 314 358 98 269 353 121 150 233 257 288 315 250 257 285 319 326 306 295 310 317 311 311 322 353 356 356 357 6 9 359 354 358 341 324 257 207 195 191 202 210 208 224
208 275 313 340 332 126 97 176 187 165 264 280 276 281 293 307 342 351 350 343 317 303 302 304 317 325 329 336 331 324 343 350 344 334 329 344 355 353 250 214 193 216 240 244
170 275 293 316 15 17 148 154 96 120 251 280 289 278 274 299 304 315 322 308 298 304 305 301 299 302 308 304 314 326 341 330 320 325 312 320 285 257 285 249 250 249 240 235
134 216 306 350 211 241 37 82 131 168 193 221 285 276 240 253 271 281 285 292 291 296 293 285 290 298 300 303 317 327 314 319 322 316 304 325 314 350 280 268 259 256 251 242
137 141 272 260 250 210 171 180 158 180 248 218 254 273 276 288 294 284 294 303 300 297 296 293 299 310 313 311 315 310 299 293 290 294 297 305 319 5 298 281 276 264 253 248
137 127 325 328 330 352 334 212 184 184 195 221 240 270 327 344 328 313 302 303 303 302 306 310 310 306 306 310 310 310 314 300 292 288 289 309 312 297 269 276 270 263 261 257
111 167 203 233 247 235 267 265 224 173 215 246 239 266 297 311 310 309 305 300 303 301 303 312 312 308 308 311 313 315 318 308 301 298 289 285 274 265 260 257 269 264 255 257
131 223 241 256 263 248 250 251 229 217 222 231 257 260 272 283 283 288 295 304 314 313 313 308 308 312 314 320 321 317 314 315 313 309 298 275 274 268 258 259 259 262 255 263
155 226 262 277 263 248 264 256 236 235 239 244 266 273 272 289 294 298 300 306 302 304 300 303 310 312 309 311 313 316 315 310 312 301 293 291 289 280 263 255 251 255 262 259
185 180 242 275 299 318 274 242 216 227 223 210 237 258 295 310 301 290 289 297 298 304 306 307 307 304 304 303 300 295 292 303 311 302 298 304 301 278 266 265 267 264 265 269
168 168 204 280 355 250 247 217 205 230 243 228 252 277 280 280 296 289 284 284 300 309 314 314 313 313 310 303 303 303 310 314 307 303 302 306 304 289 268 252 255 261 261 258
170 162 181 211 262 275 283 241 196 215 268 235 244 270 292 319 333 309 298 294 290 298 299 297 300 304 313 316 312 321 329 330 327 319 308 300 293 286 272 254 247 249 250 259
98 128 161 187 228 251 258 260 230 129 282 266 235 259 270 354 317 288 309 321 312 315 315 315 320 327 328 324 329 333 326 328 320 312 307 305 295 284 277 269 261 257 250 257
154 180 198 209 235 263 263 256 103 175 266 298 258 262 245 239 249 275 305 316 318 322 321 328 335 333 323 326 337 333 327 314 306 309 314 320 316 295 275 262 270 260 257 281
183 183 199 186 218 254 187 127 185 234 293 296 276 270 268 271 280 286 295 306 318 325 327 333 334 327 326 333 339 329 318 310 313 318 323 324 319 309 310 285 282 273 222 231
203 197 195 199 218 252 173 204 231 242 271 275 279 285 275 278 277 284 292 296 301 308 316 325 324 323 327 332 331 311 307 315 319 324 323 321 318 316 317 312 287 280 271 244
241 200 207 256 262 261 244 248 270 263 261 275 275 270 262 272 278 284 289 298 306 311 314 320 324 324 321 322 319 301 304 313 317 315 315 313 312 312 319 312 299 286 256 251
225 178 221 255 274 304 270 245 257 272 282 291 297 283 266 261 274 274 283 293 300 308 315 319 315 308 307 314 315 313 310 309 310 308 304 306 303 302 312 305 288 275 259 252
192 188 201 240 236 233 266 270 248 252 266 271 282 297 295 266 267 276 282 288 295 302 310 313 310 306 307 311 312 314 313 309 300 301 302 299 297 296 299 300 316 312 296 301